Location: Appleton
(44.2618°N, 88.4157°W)
Time: 00:27:26
(UTC+00:00)

Tiros 1 despin weight - Pass Details

Date: 04 March 2021
Orbit: 593 x 641 km, 48.2° (Epoch: 10 April)

Event Time Altitude Azimuth Distance (km) Brightness Sun altitude
Exits shadow 08:50:24 13° 86° (E) 1,860 ? -37.7°
Drops below altitude 10° 08:50:51 10° 88° (E) 2,029 ? -37.6°
Sets 08:53:14 0° 92° (E) 2,939 ? -37.3°
